Tracking 30918 objects as of 2-Jul-2025
HD Live streaming from Space Station
objects crossing your sky now

STARLINK-31023

Track STARLINK-31023 now!
10-day predictions
STARLINK-31023 is classified as:


NORAD ID: 58522
Int'l Code: 2023-191Q
Perigee: 565.5 km
Apogee: 566.9 km
Inclination: 43.0 °
Period: 95.8 minutes
Semi major axis: 6937 km
RCS: Unknown
Launch date: December 7, 2023
Source: United States (US)
Launch site: AIR FORCE EASTERN TEST RANGE (AFETR)
Your satellite tracking list
Your tracking list is empty




NASA's NSSDC Master Catalog

Two Line Element Set (TLE):
1 58522U 23191Q   25182.88661274 -.00000253  00000-0 -36328-5 0  9997
2 58522  43.0057  28.8099 0001027 271.9586  88.1139 15.02534828 87718
Source of the keplerian elements: AFSPC